N8VDS-10 Weather Reports


time (UTC)temp
F
wind
direction
speed
knots
gust
knots
rain 1hr
in
rain 24hr
in
rain mn
in
humidity
%
barometer
mb
20260506191545 51 216 1.7 2.6 0.00 0.00 0.00 43 1016.1
20260506191041 51 272 3.5 4.3 0.00 0.00 0.00 44 1016.3
20260506190539 50 328 1.7 2.6 0.00 0.00 0.00 44 1016.6
20260506190036 50 313 2.6 4.3 0.00 0.00 0.00 45 1016.4
20260506185533 50 244 4.3 6.1 0.00 0.00 0.00 44 1016.4
20260506185029 50 286 10.4 14.8 0.00 0.00 0.00 43 1016.2
20260506184527 50 209 1.7 2.6 0.00 0.00 0.00 44 1016.3
20260506184024 51 234 10.4 13.0 0.00 0.00 0.00 43 1016.4
20260506183519 51 11 6.1 7.8 0.00 0.00 0.00 42 1016.4
20260506183016 51 103 3.5 6.1 0.00 0.00 0.00 44 1016.2
20260506182514 51 325 2.6 7.8 0.00 0.00 0.00 43 1016.2
20260506182011 51 344 3.5 6.1 0.00 0.00 0.00 44 1016.2
20260506181509 52 13 7.8 8.7 0.00 0.00 0.00 43 1016.4
20260506181006 51 222 1.7 2.6 0.00 0.00 0.00 45 1016.6
20260506180502 49 270 2.6 4.3 0.00 0.00 0.00 46 1016.5
20260506175959 49 290 5.2 6.1 0.00 0.00 0.00 47 1016.4
20260506175455 49 309 2.6 4.3 0.00 0.00 0.00 46 1016.6
20260506174952 49 311 0.9 1.7 0.00 0.00 0.00 46 1016.6
20260506174450 49 266 6.1 7.8 0.00 0.00 0.00 46 1016.6
20260506173946 48 150 0.0 0.0 0.00 0.00 0.00 47 1016.7
20260506173444 49 290 5.2 7.8 0.00 0.00 0.00 48 1016.7
20260506172940 49 348 3.5 8.7 0.00 0.00 0.00 48 1016.7
20260506172438 48 217 3.5 4.3 0.00 0.00 0.00 49 1016.8
20260506171934 48 261 3.5 4.3 0.00 0.00 0.00 50 1016.6
20260506171432 49 227 6.1 7.8 0.00 0.00 0.00 49 1016.6
20260506170929 49 244 1.7 2.6 0.00 0.00 0.00 47 1016.5
20260506170426 49 200 0.9 1.7 0.00 0.00 0.00 51 1016.5
20260506165924 49 270 1.7 1.7 0.00 0.00 0.00 51 1016.5
20260506165423 50 315 2.6 4.3 0.00 0.00 0.00 49 1016.6
20260506164918 50 243 6.1 8.7 0.00 0.00 0.00 46 1016.6
20260506164415 48 273 4.3 6.1 0.00 0.00 0.00 47 1016.5
20260506163914 49 246 3.5 4.3 0.00 0.00 0.00 49 1016.8
20260506163407 48 274 5.2 10.4 0.00 0.00 0.00 52 1016.9
20260506162903 48 149 0.9 1.7 0.00 0.00 0.00 54 1016.8
20260506162401 47 5 2.6 4.3 0.00 0.00 0.00 54 1016.7
20260506161858 47 269 5.2 7.8 0.00 0.00 0.00 54 1017.0
20260506161355 47 335 1.7 2.6 0.00 0.00 0.00 55 1016.9
20260506160853 47 334 3.5 4.3 0.00 0.00 0.00 54 1017.1
20260506160350 48 286 3.5 4.3 0.00 0.00 0.00 53 1016.8
20260506155849 48 285 6.1 7.8 0.00 0.00 0.00 55 1016.9
20260506155345 48 196 1.7 2.6 0.00 0.00 0.00 55 1016.8
20260506153502 48 191 1.7 2.6 0.00 0.00 0.00 57 1016.8
20260506152959 48 349 1.7 2.6 0.00 0.00 0.00 56 1016.7
20260506152456 47 205 0.0 1.7 0.00 0.00 0.00 56 1016.7
20260506151954 48 1 5.2 7.8 0.00 0.00 0.00 55 1016.8
20260506151451 48 298 3.5 4.3 0.00 0.00 0.00 56 1016.5
20260506150949 46 348 4.3 6.1 0.00 0.00 0.00 59 1016.6
20260506150445 46 280 7.0 10.4 0.00 0.00 0.00 58 1016.7
20260506145942 46 29 1.7 4.3 0.00 0.00 0.00 60 1016.5
20260506145438 46 5 1.7 1.7 0.00 0.00 0.00 58 1016.6
20260506144936 47 65 4.3 4.3 0.00 0.00 0.00 58 1016.6
20260506144432 48 274 7.8 8.7 0.00 0.00 0.00 57 1016.5
20260506143931 47 57 3.5 4.3 0.00 0.00 0.00 59 1016.3
20260506143427 46 192 0.0 0.0 0.00 0.00 0.00 59 1016.2
20260506142926 46 6 5.2 7.8 0.00 0.00 0.00 59 1016.4
20260506142423 46 138 0.0 0.0 0.00 0.00 0.00 58 1016.3
20260506141921 46 103 2.6 4.3 0.00 0.00 0.00 58 1016.3
20260506141419 46 277 4.3 6.1 0.00 0.00 0.00 57 1016.2
20260506140917 46 24 6.1 7.8 0.00 0.00 0.00 56 1016.0
20260506140414 45 267 0.9 1.7 0.00 0.00 0.00 56 1015.9
20260506135911 45 350 3.5 6.1 0.00 0.00 0.00 57 1016.0
20260506135408 45 329 1.7 1.7 0.00 0.00 0.00 57 1016.0
20260506134904 45 128 3.5 4.3 0.00 0.00 0.00 56 1016.1
20260506134400 44 126 1.7 1.7 0.00 0.00 0.00 57 1016.0
20260506133857 45 27 5.2 7.8 0.00 0.00 0.00 56 1015.9
20260506133354 44 85 2.6 4.3 0.00 0.00 0.00 57 1016.0
20260506132850 43 100 1.7 6.1 0.00 0.00 0.00 58 1016.0
20260506132348 43 190 1.7 2.6 0.00 0.00 0.00 59 1016.0
20260506131846 44 60 3.5 4.3 0.00 0.00 0.00 57 1015.7
20260506131342 44 29 0.9 2.6 0.00 0.00 0.00 58 1015.9
20260506130839 43 24 5.2 8.7 0.00 0.00 0.00 59 1016.1
20260506130335 42 330 5.2 6.1 0.00 0.00 0.00 60 1015.7
20260506125833 42 69 4.3 6.1 0.00 0.00 0.00 61 1015.6
20260506125331 42 56 0.9 2.6 0.00 0.00 0.00 62 1015.7
20260506124830 42 330 5.2 8.7 0.00 0.00 0.00 64 1015.6
20260506124326 42 47 2.6 2.6 0.00 0.00 0.00 65 1015.7
20260506123824 41 343 3.5 4.3 0.00 0.00 0.00 68 1015.6
20260506123322 41 38 3.5 4.3 0.00 0.00 0.00 69 1015.5
20260506122819 41 103 2.6 4.3 0.00 0.00 0.00 69 1015.5
20260506122316 41 122 1.7 2.6 0.00 0.00 0.00 67 1015.7
20260506121814 41 83 1.7 2.6 0.00 0.00 0.00 69 1015.3
20260506121311 41 56 3.5 6.1 0.00 0.00 0.00 67 1015.2
20260506120808 39 42 3.5 4.3 0.00 0.00 0.00 70 1015.1
20260506120306 39 47 7.0 8.7 0.00 0.00 0.00 70 1015.0
20260506115803 39 321 6.1 7.8 0.00 0.00 0.00 70 1014.8
20260506115306 39 57 0.9 1.7 0.00 0.00 0.00 73 1014.7
20260506114759 39 152 0.0 0.0 0.00 0.00 0.00 75 1015.0
20260506114256 40 325 5.2 8.7 0.00 0.00 0.00 75 1014.9
20260506113755 40 285 2.6 2.6 0.00 0.00 0.00 75 1014.6
20260506113252 40 73 1.7 2.6 0.00 0.00 0.00 75 1014.5
20260506112748 40 101 1.7 2.6 0.00 0.00 0.00 76 1014.6
20260506112246 40 157 0.9 1.7 0.00 0.00 0.00 76 1014.5
20260506111743 39 1 1.7 2.6 0.00 0.00 0.00 76 1014.5
20260506111241 39 214 1.7 4.3 0.00 0.00 0.00 76 1014.3
20260506110737 39 280 2.6 4.3 0.00 0.00 0.00 76 1014.2
20260506110235 39 212 0.0 0.0 0.00 0.00 0.00 77 1013.9
20260506105731 39 56 0.9 1.7 0.00 0.00 0.00 77 1013.9
20260506105229 39 214 0.0 0.0 0.00 0.00 0.00 78 1013.9
20260506104727 39 125 0.0 1.7 0.00 0.00 0.00 77 1013.7
20260506104224 39 232 1.7 1.7 0.00 0.00 0.00 77 1014.0
20260506103721 39 213 0.0 0.0 0.00 0.00 0.00 77 1013.8
20260506103218 39 245 0.0 0.0 0.00 0.00 0.00 77 1013.5
20260506102716 39 216 0.0 0.0 0.00 0.00 0.00 77 1013.7
20260506102214 39 173 0.0 0.0 0.00 0.00 0.00 76 1013.3
20260506101710 40 164 0.0 0.0 0.00 0.00 0.00 76 1013.3
20260506101207 40 217 0.0 0.0 0.00 0.00 0.00 76 1013.4
20260506100705 40 193 0.0 0.0 0.00 0.00 0.00 76 1013.2
20260506100203 40 208 0.0 0.0 0.00 0.00 0.00 76 1013.1
20260506095701 41 259 0.0 0.0 0.00 0.00 0.00 76 1013.1
20260506095157 41 225 0.0 1.7 0.00 0.00 0.00 75 1013.2
20260506094655 41 341 1.7 2.6 0.00 0.00 0.00 76 1012.8
20260506094152 42 175 0.0 0.0 0.00 0.00 0.00 77 1012.6
20260506093651 42 203 0.0 0.0 0.00 0.00 0.00 78 1012.8
20260506093148 42 126 0.9 1.7 0.00 0.00 0.00 80 1012.8
20260506092645 42 144 0.0 1.7 0.00 0.00 0.00 84 1012.6
20260506092142 42 212 0.0 0.0 0.00 0.00 0.00 84 1012.9
20260506091640 42 216 0.0 1.7 0.00 0.00 0.00 84 1012.8
20260506091137 42 210 0.0 0.0 0.00 0.00 0.00 84 1012.7
20260506090636 42 259 2.6 4.3 0.00 0.00 0.00 84 1012.7
20260506090131 43 235 0.9 1.7 0.00 0.00 0.00 84 1012.7
20260506085629 43 288 0.9 1.7 0.00 0.00 0.00 83 1012.7
20260506085125 43 217 0.0 0.0 0.00 0.00 0.00 83 1012.6
20260506084621 43 218 1.7 2.6 0.00 0.00 0.00 82 1012.6
20260506084118 43 228 0.0 1.7 0.00 0.00 0.00 82 1012.8
20260506083615 43 260 0.0 1.7 0.00 0.00 0.00 82 1012.7
20260506083113 43 208 0.0 0.0 0.00 0.00 0.00 81 1012.8
20260506082609 43 241 1.7 1.7 0.00 0.00 0.00 81 1012.7
20260506082105 43 227 0.0 0.0 0.00 0.00 0.00 81 1012.9
20260506081603 44 176 0.0 0.0 0.00 0.00 0.00 80 1012.8
20260506081100 44 219 0.0 0.0 0.00 0.00 0.00 80 1012.6
20260506080558 44 211 0.0 0.0 0.00 0.00 0.00 79 1012.9
20260506073038 45 209 0.9 1.7 0.00 0.00 0.00 75 1012.5
20260506072536 45 221 0.0 0.0 0.00 0.00 0.00 74 1012.8
20260506072033 45 208 0.9 1.7 0.00 0.00 0.00 74 1012.7
20260506071531 45 251 1.7 2.6 0.00 0.00 0.00 72 1012.4
20260506071028 45 294 0.9 1.7 0.00 0.00 0.00 71 1012.6
20260506070525 45 270 3.5 4.3 0.00 0.00 0.00 70 1012.6
20260506062503 46 221 0.0 0.0 0.00 0.00 0.00 62 1012.6
20260506061959 46 237 0.9 1.7 0.00 0.00 0.00 61 1012.7
20260506061455 47 244 0.9 1.7 0.00 0.00 0.00 61 1012.6
20260506060953 47 218 0.9 2.6 0.00 0.00 0.00 60 1012.8
20260506060451 47 292 2.6 2.6 0.00 0.00 0.00 59 1013.0
20260506050920 48 270 2.6 2.6 0.00 0.00 0.00 54 1012.3
20260506050418 48 268 3.5 4.3 0.00 0.00 0.00 54 1012.5
20260506044908 48 261 1.7 2.6 0.00 0.00 0.00 54 1012.6
20260506044406 48 218 2.6 4.3 0.00 0.00 0.00 55 1012.4
20260506043903 48 268 2.6 4.3 0.00 0.00 0.00 53 1012.2
20260506043400 48 269 2.6 2.6 0.00 0.00 0.00 53 1011.9
20260506042858 48 221 1.7 2.6 0.00 0.00 0.00 54 1012.0
20260506042357 48 280 4.3 6.1 0.00 0.00 0.00 52 1012.2
20260506041855 48 269 4.3 6.1 0.00 0.00 0.00 52 1012.0
20260506041352 48 284 5.2 7.8 0.00 0.00 0.00 52 1012.4
20260506040849 48 251 2.6 4.3 0.00 0.00 0.00 52 1012.4
20260506040346 48 204 2.6 2.6 0.00 0.00 0.00 53 1012.3
20260506035842 48 210 1.7 2.6 0.00 0.05 0.05 53 1012.4
20260506035340 48 237 2.6 4.3 0.00 0.05 0.05 52 1012.3
20260506034837 48 255 2.6 2.6 0.00 0.05 0.05 52 1012.4
20260506034334 48 239 1.7 2.6 0.00 0.05 0.05 52 1012.4
20260506033831 48 200 1.7 1.7 0.00 0.05 0.05 52 1012.3
20260506033328 49 240 3.5 4.3 0.00 0.05 0.05 52 1012.1
20260506032825 49 285 4.3 6.1 0.00 0.05 0.05 51 1012.1
20260506032322 49 280 4.3 6.1 0.00 0.05 0.05 52 1012.4
20260506031819 48 210 0.9 1.7 0.00 0.05 0.05 52 1012.3
20260506031316 49 219 1.7 1.7 0.00 0.05 0.05 53 1012.5
20260506030814 49 272 1.7 2.6 0.00 0.05 0.05 52 1012.3
20260506030311 49 244 2.6 2.6 0.00 0.05 0.05 51 1012.3
20260506025808 49 216 1.7 1.7 0.00 0.05 0.05 51 1012.1
20260506025306 49 270 1.7 2.6 0.00 0.05 0.05 52 1012.2
20260506024802 49 231 1.7 1.7 0.00 0.05 0.05 51 1012.1
20260506024258 49 217 1.7 1.7 0.00 0.05 0.05 51 1012.1
20260506023754 49 222 0.0 0.0 0.00 0.05 0.05 51 1012.1
20260506023252 49 195 1.7 2.6 0.00 0.05 0.05 52 1012.1
20260506022748 49 211 0.9 1.7 0.00 0.05 0.05 52 1012.2
20260506022246 49 206 2.6 4.3 0.00 0.05 0.05 51 1011.9
20260506021744 49 205 1.7 2.6 0.00 0.05 0.05 51 1012.1
20260506021240 49 206 0.0 0.0 0.00 0.05 0.05 50 1012.1
20260506020737 49 204 0.0 0.0 0.00 0.05 0.05 50 1011.9
20260506020235 50 208 0.9 1.7 0.00 0.05 0.05 50 1012.1
20260506015732 50 191 1.7 1.7 0.00 0.05 0.05 48 1011.9
20260506015230 50 224 0.9 1.7 0.00 0.05 0.05 48 1011.8
20260506014727 50 276 2.6 2.6 0.00 0.05 0.05 48 1011.7
20260506014223 50 276 3.5 4.3 0.00 0.05 0.05 47 1011.7
20260506013720 50 203 1.7 2.6 0.00 0.05 0.05 48 1011.5
20260506013217 50 214 1.7 1.7 0.00 0.05 0.05 48 1011.7
20260506012713 50 203 3.5 4.3 0.00 0.05 0.05 48 1011.7
20260506012211 50 226 1.7 1.7 0.00 0.05 0.05 48 1011.3
20260506011708 51 199 0.9 1.7 0.00 0.05 0.05 48 1011.5
20260506011204 51 211 0.0 1.7 0.00 0.05 0.05 48 1011.4
20260506010703 51 204 0.9 1.7 0.00 0.05 0.05 46 1011.5
20260506010200 51 186 2.6 2.6 0.00 0.05 0.05 45 1011.4
20260506005656 51 240 3.5 4.3 0.00 0.05 0.05 46 1011.3
20260506005153 51 214 1.7 2.6 0.00 0.05 0.05 46 1011.3
20260506004649 51 233 1.7 2.6 0.00 0.05 0.05 45 1011.5
20260506004147 52 238 1.7 2.6 0.00 0.05 0.05 45 1011.5
20260506003643 52 222 3.5 7.8 0.00 0.05 0.05 45 1011.5
20260506003139 52 215 1.7 4.3 0.00 0.05 0.05 44 1011.4
20260506002635 52 203 2.6 2.6 0.00 0.05 0.05 43 1011.4
20260506002131 52 232 3.5 4.3 0.00 0.05 0.05 43 1011.3
20260506001627 52 269 7.8 8.7 0.00 0.05 0.05 43 1011.4
20260506001125 52 205 1.7 1.7 0.00 0.05 0.05 43 1011.1
20260506000622 52 295 6.1 8.7 0.00 0.05 0.05 42 1011.1
20260506000119 52 217 2.6 2.6 0.00 0.05 0.05 42 1011.1
20260505235617 53 293 7.0 8.7 0.00 0.05 0.05 42 1011.1
20260505235114 53 212 1.7 4.3 0.00 0.05 0.05 44 1011.2
20260505234611 53 287 2.6 2.6 0.00 0.05 0.05 42 1010.8
20260505234108 53 326 10.4 14.8 0.00 0.05 0.05 41 1010.8
20260505233606 53 206 7.8 13.0 0.00 0.05 0.05 41 1011.0
20260505233102 53 260 3.5 7.8 0.00 0.05 0.05 41 1010.7
20260505232600 53 249 6.1 7.8 0.00 0.05 0.05 40 1010.5
20260505232058 53 272 7.8 10.4 0.00 0.05 0.05 39 1010.7
20260505231554 53 201 1.7 2.6 0.00 0.05 0.05 39 1010.6
20260505231053 54 234 1.7 2.6 0.00 0.05 0.05 39 1010.5
20260505230550 54 299 8.7 10.4 0.00 0.05 0.05 38 1010.4
20260505230046 54 217 1.7 2.6 0.00 0.05 0.05 40 1010.6
20260505225543 54 268 4.3 6.1 0.00 0.05 0.05 39 1010.6
20260505225039 54 253 7.8 8.7 0.00 0.05 0.05 38 1010.8
20260505224536 54 211 3.5 4.3 0.00 0.05 0.05 38 1010.7
20260505224034 54 195 1.7 1.7 0.00 0.05 0.05 39 1010.7
20260505223531 54 254 4.3 4.3 0.00 0.05 0.05 38 1010.8
20260505223027 55 269 6.1 7.8 0.00 0.05 0.05 37 1010.7
20260505222523 55 210 3.5 4.3 0.00 0.05 0.05 39 1010.8
20260505222019 55 217 4.3 6.1 0.00 0.05 0.05 38 1010.5
20260505221517 55 235 5.2 6.1 0.00 0.05 0.05 38 1010.3
20260505221013 55 203 5.2 7.8 0.00 0.05 0.05 37 1010.6
20260505220510 55 285 5.2 7.8 0.00 0.05 0.05 37 1010.8
20260505220008 55 274 3.5 4.3 0.00 0.05 0.05 39 1010.6
20260505215506 55 276 0.9 1.7 0.00 0.05 0.05 41 1010.8
20260505215003 55 227 5.2 6.1 0.00 0.05 0.05 41 1010.5
20260505214502 55 271 4.3 6.1 0.00 0.05 0.05 40 1010.6
20260505213958 55 208 3.5 4.3 0.00 0.05 0.05 39 1010.8
20260505213456 55 255 1.7 2.6 0.00 0.05 0.05 40 1010.7
20260505212952 55 172 4.3 6.1 0.00 0.05 0.05 40 1010.8
20260505212449 55 208 2.6 4.3 0.00 0.05 0.05 42 1010.6
20260505211945 55 291 9.6 12.2 0.00 0.05 0.05 42 1010.5
20260505211443 55 257 7.0 8.7 0.00 0.05 0.05 42 1010.5
20260505210939 56 202 8.7 12.2 0.00 0.05 0.05 42 1010.8
20260505210436 56 215 1.7 1.7 0.00 0.05 0.05 44 1010.8
20260505205933 56 223 7.8 12.2 0.00 0.05 0.05 43 1010.7
20260505205432 56 220 1.7 1.7 0.00 0.05 0.05 46 1010.6
20260505204928 55 201 3.5 6.1 0.00 0.05 0.05 46 1010.5
20260505204426 55 211 1.7 2.6 0.00 0.05 0.05 46 1010.6
20260505203923 55 258 5.2 7.8 0.00 0.05 0.05 45 1010.7
20260505203419 56 196 6.1 8.7 0.00 0.05 0.05 47 1010.7
20260505202916 56 253 6.1 7.8 0.00 0.05 0.05 47 1010.8
20260505202412 56 279 9.6 14.8 0.00 0.05 0.05 48 1010.7
20260505201909 56 291 5.2 6.1 0.00 0.05 0.05 48 1010.6
20260505201406 56 235 6.1 7.8 0.00 0.05 0.05 48 1010.7
20260505200904 55 200 7.8 8.7 0.00 0.05 0.05 48 1010.7
20260505200401 55 235 2.6 4.3 0.00 0.05 0.05 49 1010.7
20260505195856 55 284 7.8 10.4 0.00 0.05 0.05 48 1010.8
20260505195354 55 230 1.7 1.7 0.00 0.05 0.05 51 1010.8
20260505194851 55 203 6.1 8.7 0.00 0.05 0.05 50 1010.7
20260505194348 55 321 3.5 4.3 0.00 0.05 0.05 50 1010.8
20260505193849 56 235 4.3 6.1 0.00 0.05 0.05 52 1010.8
20260505193347 55 226 6.1 6.1 0.00 0.05 0.05 51 1010.7
20260505192844 55 243 9.6 12.2 0.00 0.05 0.05 52 1010.5
20260505192342 55 193 4.3 6.1 0.00 0.05 0.05 56 1010.8
20260505191839 55 304 8.7 12.2 0.00 0.05 0.05 56 1010.8